#timestamp,LO_Frequency,Hit 
1501070415.9,286047045.1,N
1501070435.7,286047045.1,N
1501070455.5,286047040.4,N
1501070475.4,286047035.8,N
1501070495.2,286047034.1,N
1501070515.0,286047035.6,N
1501070515.9,286047035.6,N
1501070535.7,286047031.5,N
1501070555.6,286047026.8,N
1501070575.4,286047020.9,N
1501070595.2,286047020.8,N
1501070615.1,286047024.4,N
1501070616.0,286047024.4,N
1501070635.8,286047025.5,N
1501070655.6,286047025.8,N
1501070675.5,286047028.7,N
1501070695.3,286047036.5,N
1501070715.1,286047030.1,N
1501070735.9,286047027.0,N
1501070755.7,286047022.1,N
1501070775.5,286047023.3,N
1501070795.3,286047024.5,N
1501070815.2,286047020.5,N
1501070835.0,286047024.8,N
1501070835.9,286047024.8,N
1501070855.7,286047026.2,N
1501070875.6,286047028.8,N
1501070895.4,286047032.7,N
1501070915.2,286047030.4,N
1501070935.1,286047038.0,N
1501070936.0,286047038.0,N
1501070955.8,286047035.3,N
1501070975.6,286047033.5,N
1501070995.5,286047032.4,N
1501071015.3,286047034.3,N
1501071035.1,286047036.0,N
1501071055.9,286047033.7,N
1501071075.7,286047036.0,N
1501071095.5,286047036.4,N
1501071115.3,286047033.0,N
1501071135.2,286047030.2,N
1501071155.9,286047030.1,N
1501071175.7,286047029.2,N
1501071195.6,286047026.2,N
1501071215.4,286047028.0,N
1501071235.2,286047026.7,N
1501071255.1,286047023.8,N
1501071256.0,286047023.8,N
1501071275.8,286047028.3,N
1501071295.6,286047025.5,N
1501071315.5,286047024.3,N
1501071335.3,286047023.1,N
1501071355.1,286047022.9,N
1501071375.8,286047026.8,N
1501071395.7,286047020.7,N
1501071415.5,286047022.8,N
1501071435.3,286047025.2,N
1501071455.2,286047020.1,N
1501071475.9,286047026.4,N
1501071495.7,286047028.7,N
1501071515.6,286047031.0,N
1501071535.4,286047032.2,N
1501071555.2,286047028.6,N
1501071575.0,286047027.5,N
1501071576.0,286047027.5,N
1501071595.8,286047027.3,N
1501071615.6,286047025.4,N
1501071635.4,286047024.0,N
1501071655.3,286047024.5,N
1501071675.1,286047020.7,N
1501071695.8,286047020.9,N
1501071715.7,286047021.3,N
1501071735.5,286047017.4,N
1501071755.3,286047023.5,N
1501071775.2,286047021.5,N
1501071795.9,286047022.9,N
1501071815.7,286047020.2,N
1501071835.5,286047019.6,N
1501071855.4,286047017.1,N
1501071875.2,286047014.4,N
1501071895.0,286047016.1,N
1501071895.9,286047016.1,N
1501071915.8,286047016.7,N
1501071935.6,286047013.8,N
1501071955.4,286047008.5,N
1501071975.3,286047008.3,N
1501071995.1,286047009.7,N
1501071996.0,286047009.7,N
1501072015.8,286047007.9,N
1501072035.7,286047009.2,N
1501072055.5,286047011.4,N
1501072075.3,286047015.3,N
1501072095.1,286047015.2,N
1501072115.9,286047009.8,N
1501072135.7,286047013.5,N
1501072155.5,286047014.2,N
1501072175.4,286047019.6,N
1501072195.2,286047021.6,N
1501072215.0,286047019.1,N
1501072215.9,286047019.1,N
1501072235.8,286047022.0,N
1501072255.6,286047022.3,N
1501072275.4,286047022.8,N
1501072295.3,286047021.9,N
1501072315.1,286047022.5,N
1501072316.0,286047022.5,N
1501072335.8,286047024.1,N
1501072355.6,286047028.0,N
1501072375.5,286047028.8,N
1501072395.3,286047033.2,N
1501072415.1,286047034.2,N
1501072435.9,286047037.9,N
1501072455.7,286047040.7,N
1501072475.5,286047039.4,N
1501072495.4,286047035.1,N
1501072515.2,286047031.8,N
1501072535.0,286047035.6,N
1501072535.9,286047035.6,N
1501072555.8,286047036.8,N
1501072575.6,286047037.7,N
1501072595.4,286047037.4,N
1501072615.2,286047035.4,N
1501072635.1,286047034.5,N
1501072636.0,286047034.5,N
1501072655.8,286047034.4,N
1501072675.6,286047031.5,N
1501072695.5,286047028.6,N
1501072715.3,286047024.9,N
1501072735.1,286047022.5,N
1501072755.9,286047019.1,N
1501072775.7,286047017.7,N
1501072795.5,286047016.1,N
1501072815.4,286047016.4,N
1501072835.2,286047016.0,N
1501072855.0,286047014.9,N
1501072855.9,286047014.9,N
1501072875.8,286047016.4,N
1501072895.6,286047018.3,N
1501072915.4,286047013.8,N
1501072935.2,286047012.7,N
1501072955.1,286047014.8,N
1501072956.0,286047014.8,N
1501072975.8,286047010.7,N
1501072995.6,286047010.4,N
1501073015.5,286047010.6,N
1501073035.3,286047010.9,N
1501073055.1,286047014.5,N
1501073075.9,286047011.1,N
1501073095.7,286047010.0,N
1501073115.5,286047008.4,N
1501073135.4,286047008.0,N
1501073155.2,286047012.7,N
1501073175.0,286047014.1,N
1501073175.9,286047014.1,N
1501073195.7,286047016.7,N
1501073215.6,286047017.0,N
1501073235.4,286047017.3,N
1501073255.2,286047019.1,N
1501073275.1,286047021.1,N
1501073276.0,286047021.1,N
1501073295.8,286047022.9,N
1501073315.6,286047026.4,N
1501073335.5,286047022.2,N
1501073355.3,286047018.9,N
1501073375.1,286047021.3,N
1501073395.9,286047023.5,N
1501073415.7,286047022.8,N
1501073435.5,286047019.4,N
1501073455.3,286047018.5,N
1501073475.2,286047017.2,N
1501073495.0,286047014.1,N
1501073495.9,286047014.1,N
1501073515.7,286047011.6,N
1501073535.6,286047011.7,N
1501073555.4,286047012.1,N
1501073575.2,286047012.3,N
1501073595.1,286047011.9,N
1501073596.0,286047011.9,N
1501073615.8,286047010.1,N
1501073635.6,286047013.7,N
1501073655.5,286047012.6,N
1501073675.3,286047012.7,N
1501073695.1,286047017.4,N
1501073715.9,286047017.8,N
1501073735.7,286047018.6,N
1501073755.5,286047017.3,N
1501073775.3,286047026.0,N
1501073795.2,286047023.7,N
1501073815.0,286047025.3,N
1501073815.9,286047025.3,N
1501073835.7,286047028.2,N
1501073855.6,286047028.3,N
1501073875.4,286047023.7,N
1501073895.2,286047020.8,N
1501073915.1,286047017.3,N
1501073916.0,286047017.3,N
1501073935.8,286047018.8,N
1501073955.6,286047018.0,N
1501073975.5,286047016.0,N
1501073995.3,286047014.4,N
